Uitslag Triatlon Izegem top 3

# Naam Totaal
1 HEEMERYCK Pieter 01:45:22 85.63
2 geerts marc 01:45:49 84.23
3 Van Riel Marten 01:45:53 84.20
4 Denteneer Peter 01:46:07 84.10
5 Dircken Lander 01:46:23 83.98
6 Mets Tom 01:47:11 83.62
7 De Hertog Kjel 01:47:14 83.60
8 Jurgens Thomas 01:47:38 83.42
9 Malcolm Philippe 01:48:12 83.17
10 De Grooff David 01:48:33 83.01
11 Brems Ben 01:49:15 82.70
12 Veramme Koen 01:49:26 82.62
13 Declercq Charles 01:49:30 82.59
14 Goetstouwers Stenn 01:49:48 82.45
15 Cool Hannes 01:51:05 81.88
16 Vande Capelle Ward 01:51:22 81.75
17 Laureys Matthias 01:51:41 81.61
18 De Jonghe Lukas 01:53:19 80.89
19 Vanhee Pieter 01:53:23 80.86
20 Cottyn Gilles 01:53:48 80.67
21 ameye joeri 01:54:02 80.57
22 Nellen Maïk 01:54:14 80.48
23 Cardoen Olivier 01:54:48 80.22
24 Valentin Glenn 01:55:01 80.13
25 Horsten Niels 01:56:16 79.57
26 Didier William 01:56:48 79.33
27 Coulon Johan 01:57:04 79.21
28 scherpereel steven 01:57:36 78.98
29 Vandenbroucke Sigurd 01:57:52 78.86
30 Verkempinck Ruben 01:57:58 78.81
31 De Coninck Jasper 01:58:50 78.43
32 Van Dycke Bas 01:58:54 78.40
33 Lagae Korneel 01:58:54 78.40
34 Poppe Gunnar 01:59:09 78.28
35 Harinck David 01:59:10 78.28
36 Cruyt Jeroen 01:59:38 78.07
37 Deman Timmy 01:59:45 78.02
38 Debouck Kurt 01:59:57 77.93
39 Dewitte Lowie 02:00:23 77.73
40 Wim Claeys 02:00:25 77.72
41 Verstraete Eduard 02:00:28 77.70
42 Tanghe Tom 02:01:49 77.09
43 Taecke Klaas 02:02:18 76.88
44 Maertens Carlo 02:02:19 76.87
45 Bogaert Mike 02:02:56 76.60
46 Verschueren Thomas 02:03:01 76.56
47 Scheers Dimitri 02:03:19 76.43
48 Sarrazin Bernard 02:03:19 76.43
49 Vanhoutte Witze 02:03:22 76.40
50 Ptacek David 02:03:29 76.35
51 Coysman Joke 02:03:29 80.80
52 De Rybel Ruud 02:03:36 76.30
53 Deman Kevin 02:03:54 76.17
54 De Bel Allen 02:04:19 75.98
55 VANLERBERGHE Joost 02:04:23 75.95
56 Azou Stijn 02:04:26 75.93
57 Remmerie Stijn 02:04:35 75.86
58 Colpaert Filip 02:04:36 75.85
59 Loose Christopher 02:04:53 75.73
60 Perneel Guillaume 02:05:01 75.67
61 Herreman Gillian 02:05:18 75.54
62 Kerckhof Tom 02:05:21 75.52
63 Lewyllie Jolien 02:05:53 78.45
64 Weuts Karolien 02:05:57 78.42
65 Verholle Bjorn 02:06:16 75.11
66 Decottignies Robin 02:06:35 74.97
67 Vandekendelaere Janique 02:06:44 74.90
68 Couckuyt Nico 02:06:53 74.84
69 Verlinde Marnik 02:06:56 74.81
70 Cornette Wouter 02:07:05 74.75
71 Bauwens Nils 02:07:11 74.70
72 Brackx Brecht 02:07:14 74.68
73 Vanden Daelen Leen 02:07:26 77.71
74 Matthys Marc 02:07:51 74.40
75 Segaert Frank 02:07:56 74.37
76 Deleersnyder Chris 02:08:01 74.33
77 Wullepit Patrick 02:08:04 74.31
78 Remmerie Thierry 02:08:15 74.23
79 Moerman Rudy 02:08:16 74.22
80 Van Ranst Gijs 02:08:25 74.15
81 Angillis Eddy 02:08:26 74.14
82 Vanwildemeersch Peter 02:08:27 74.14
83 Caron Geert 02:08:27 74.14
84 Fauvart Hans 02:08:32 74.10
85 Bossuyt Lieselot 02:08:41 77.11
86 Desmedt Kristof 02:08:57 73.91
87 Timmerman Jan 02:08:58 73.91
88 Vandenbroucke Louise 02:08:58 76.97
89 Devoldere Yves 02:09:13 73.80
90 Ottevaere Charlene 02:09:13 76.85
91 Geerts Karolien 02:09:17 76.82
92 Deforche Peter 02:09:26 73.70
93 Demyttenaere Frédéric 02:09:39 73.60
94 Lecluyse Matthijs 02:09:47 73.54
95 Glorieux Frederic 02:09:58 73.46
96 Laflere Lieven 02:10:27 73.25
97 Pais Alves Santos Filipa 02:10:38 76.17
98 Lammertyn Bert 02:10:40 73.15
99 Vanhaverbeke Nicolas 02:10:41 73.14
100 Desmet Lars 02:11:03 72.98
101 Geerts Luc 02:11:07 72.95
102 Desmet Cis 02:11:11 72.92
103 Courcelle Stéphane 02:11:12 72.91
104 Lefevre Alex 02:11:17 72.87
105 Smitz Michel 02:11:19 72.86
106 Verbeke Sammy 02:11:25 72.81
107 Hoornaert Bart 02:11:28 72.79
108 Demeulenaere Bart 02:11:37 72.73
109 Van Hoornick Tim 02:11:51 72.62
110 Pype Bene 02:12:11 72.47
111 Piepers Jurgen 02:12:23 72.38
112 Sanders Sören 02:12:32 72.32
113 Spruytte Stefaan 02:12:48 72.20
114 De Rynck Bruno 02:12:49 72.19
115 Wieme Ulrik 02:13:02 72.09
116 De Brabander Stefan 02:13:11 72.03
117 Malfait Mathias 02:13:48 71.75
118 T'Joens Elias 02:13:55 71.70
119 Dousy Frederik 02:13:56 71.69
120 Claeys Christophe 02:13:59 71.67
121 De Deene Veronique 02:14:22 74.38
122 Hollants Katleen 02:14:30 74.32
123 Renard Patrick 02:14:32 71.42
124 Herreman Linde 02:14:38 74.25
125 Ossieur Romain 02:14:43 71.34
126 Coeck Inge 02:14:52 74.14
127 Vandamme Brecht 02:15:04 71.19
128 SALEMBIER JOOST 02:15:08 71.16
129 Vandenbussche Steven 02:15:15 71.11
130 Christiaens Wim 02:15:20 71.07
131 Vanpoucke Bart 02:16:19 70.63
132 De Laere Stan 02:16:36 70.50
133 Wemel Laurent 02:16:47 70.42
134 De Lepeleire Bert 02:16:53 70.38
135 Uytterschaut Dany 02:17:39 70.03
136 De Meester Sven 02:18:19 69.74
137 Vervoort Wendy 02:18:30 72.40
138 Deschepper Curt 02:18:33 69.63
139 Blondeel Wouter 02:18:53 69.48
140 Vermont Lies 02:18:59 72.17
141 De Smedt Eline 02:19:05 72.12
142 Yssers Dieter 02:19:14 69.33
143 De Lombaert Luc 02:19:46 69.09
144 De Smet John 02:19:48 69.08
145 Synaeve Wim 02:19:50 69.06
146 Vandromme Olav 02:19:59 68.99
147 Wydaeghe Jeroen 02:20:13 68.89
148 Vansteenkiste Roy 02:20:17 68.86
149 Declerck Jeroen 02:20:19 68.85
150 Wattez Bart 02:20:20 68.84
151 Terryn Terryn 02:20:32 68.75
152 Vandamme Anne 02:20:34 71.41
153 Blomme Marieke 02:20:34 71.41
154 De Pril Jorn 02:21:17 68.41
155 Strosse Stijn 02:21:26 68.35
156 Verscheure Patrick 02:21:30 68.32
157 De Bels Eddy 02:21:36 68.27
158 Lioen Andy 02:21:48 68.18
159 Verfaillie Franky 02:21:53 68.15
160 Ronny Vanbelle 02:21:56 68.12
161 Tytgat Joost 02:22:02 68.08
162 Boone Bruno 02:22:15 67.98
163 Vanclooster Lore 02:22:21 70.55
164 Vekemans Bert 02:22:41 67.79
165 Beulque Randy 02:22:50 67.72
166 Samyn Lode 02:22:56 67.68
167 Buschop Hilde 02:22:58 70.26
168 Depreux Kristof 02:23:19 67.51
169 Glorieux Ann-sophie 02:23:30 70.00
170 Demaeght Pascal 02:23:50 67.28
171 Rousseau Yannick 02:23:55 67.24
172 Van Den Bulcke Sebastien 02:23:57 67.23
173 Soeters Evi 02:23:58 69.78
174 Vansteenkiste Stephan 02:24:00 67.20
175 Vansteenkiste Kevin 02:24:01 67.20
176 Van Eenoo Geert 02:24:05 67.17
177 Mergaert Joris 02:24:14 67.10
178 Cauwelier Wannes 02:24:26 67.01
179 Brouckaert Joost 02:24:38 66.92
180 Van Parijs Peter 02:24:46 66.86
181 Kazimoto Jonathan 02:25:08 66.70
182 David Nele 02:25:18 69.14
183 Lagae Elodie 02:25:52 68.87
184 Van Dyck Delfien 02:26:02 68.79
185 Declercq Wouter 02:26:06 66.27
186 De Marez Lieven 02:26:18 66.18
187 Tanghe Stefaan 02:26:19 66.17
188 Decroos Koenraad 02:26:21 66.16
189 Kesteloot Laurens 02:26:31 66.08
190 Lamote Bert 02:26:36 66.04
191 Devos Lode 02:26:46 65.97
192 Van Mechelen Geert 02:26:49 65.95
193 Lecluyse Jeroen 02:26:55 68.36
194 Tyteca Walter 02:27:37 65.59
195 Fidlers Luc 02:27:45 65.53
196 Soete Pieter 02:27:47 65.52
197 Van Osselaer Jan 02:28:09 65.35
198 Van Hove Janne 02:28:13 67.74
199 Vandamme Ward 02:28:19 65.28
200 Mattelin Lode 02:28:39 65.13
201 Syna Déborrah 02:28:45 65.09
202 Decaestecker Ringo 02:29:18 64.84
203 Vanbecelaere Tom 02:29:21 64.82
204 Wauters Wim 02:29:47 64.62
205 Devoldere Kristof 02:30:19 64.39
206 Desnouck Simon 02:30:25 64.34
207 Decoutere Sylvia 02:30:56 66.44
208 Coussement Tom 02:31:01 64.07
209 De Meulenaere Gunther 02:31:09 64.02
210 Desmet Bart 02:31:10 64.01
211 Lefevere Didier 02:31:18 63.95
212 Bouckaert Charles 02:31:19 63.94
213 Rammeloo Eddy 02:31:34 63.83
214 Remaut Johan 02:31:36 63.81
215 Devos Bart 02:31:39 63.79
216 De Baets Soetkin 02:31:41 66.08
217 Defoort Saartje 02:32:01 65.92
218 Desmet Heikki 02:32:13 63.54
219 Tempelaere Tineke 02:32:16 65.80
220 Dursin Jakob 02:32:56 63.22
221 Vanderschueren Kathy 02:33:09 65.37
222 Ballyn Korneel 02:33:31 62.96
223 Colle Stefan 02:33:36 62.92
224 Debrauwer Brecht 02:33:50 62.82
225 Snoeck Stefaan 02:34:54 62.34
226 Derweduwen An 02:35:04 64.45
227 Liviau Ruth 02:35:46 64.12
228 Bourry Laetitia 02:36:01 64.00
229 Vanmullem Christoph 02:36:29 61.64
230 Van Maele Nick 02:37:13 61.31
231 Huyghe Stefaan 02:37:15 61.30
232 Devolder Emmanuel 02:38:09 60.89
233 Raes Annelies 02:38:12 62.95
234 Van Wayenbergh Kurt 02:39:40 60.22
235 Collet Lucas 02:39:40 60.22
236 Lisabeth Daniël 02:39:47 60.17
237 De Boever Jurgen 02:40:09 60.00
238 Coghe Frederik 02:40:26 59.88
239 Vandamme Nancy 02:40:48 61.71
240 Maes Wim 02:41:05 59.59
241 Baïda Amar 02:41:19 59.48
242 Vandemeulebroucke 02:42:24 59.00
243 Vandewaetere Joost 02:42:53 58.78
244 Decock Willem 02:43:03 58.71
245 Vanlerberghe Filip 02:43:38 58.45
246 Deblauwe Bart 02:48:09 56.44
247 De Smet Pieterjan 02:48:39 56.21
248 Lemeire Jos 02:50:24 55.43
249 D'haene Mieke 02:50:58 56.33
250 Missinne Lieven 02:54:37 53.55
251 Derveaux Thomas 02:56:52 52.55
252 Bouckaert Stanislas 02:56:57 52.51
253 Vluymans Herman 03:02:00 50.26
254 Denecker Hans 03:07:39 47.24

Reacties

  • Nog geen reacties beschikbaar